This is the latest recevied weather packets stored in our database for station/object WC4PEM-13. If no packets are shown the sender has not sent any weather packets the latest 1 day(s).
| Time | Temp. | Humidity | Pressure | Rain* | Wind** | Luminosity | Snow |
|---|---|---|---|---|---|---|---|
| 1778003549 | 28.89° C | 56% | 1015.7 hPa | 0 mm | - | - | - |
| 1778003249 | 28.89° C | 59% | 1015.8 hPa | 0 mm | - | - | - |
| 1778002949 | 28.33° C | 59% | 1015.9 hPa | 0 mm | - | - | - |
| 1778002649 | 28.33° C | 62% | 1015.8 hPa | 0 mm | - | - | - |
| 1778002349 | 27.78° C | 61% | 1015.8 hPa | 0 mm | - | - | - |
| 1778002049 | 28.33° C | 60% | 1015.9 hPa | 0 mm | - | - | - |
| 1778001749 | 28.33° C | 60% | 1016 hPa | 0 mm | - | - | - |
| 1778001449 | 28.33° C | 59% | 1015.8 hPa | 0 mm | - | - | - |
| 1778001149 | 28.89° C | 61% | 1016 hPa | 0 mm | - | - | - |
| 1778000849 | 28.89° C | 59% | 1015.9 hPa | 0 mm | - | - | - |
| 1778000549 | 28.89° C | 59% | 1015.9 hPa | 0 mm | - | - | - |
| 1778000249 | 28.33° C | 60% | 1015.9 hPa | 0 mm | - | - | - |
| 1777999949 | 28.89° C | 59% | 1016.1 hPa | 0 mm | - | - | - |
| 1777999349 | 28.89° C | 58% | 1015.9 hPa | 0 mm | - | - | - |
| 1777999049 | 28.89° C | 60% | 1016.1 hPa | 0 mm | - | - | - |
| 1777998749 | 28.33° C | 61% | 1016.1 hPa | 0 mm | - | - | - |
| 1777998449 | 28.33° C | 63% | 1016.1 hPa | 0 mm | - | - | - |
| 1777998149 | 28.33° C | 61% | 1016.1 hPa | 0 mm | - | - | - |
| 1777997249 | 28.33° C | 61% | 1016.4 hPa | 0 mm | - | - | - |
| 1777996949 | 28.33° C | 62% | 1016.2 hPa | 0 mm | - | - | - |
| 1777996349 | 28.33° C | 62% | 1016.2 hPa | 0 mm | - | - | - |
| 1777996051 | 27.78° C | 62% | 1016.1 hPa | 0 mm | - | - | - |
| 1777995749 | 27.78° C | 63% | 1016.2 hPa | 0 mm | - | - | - |
* Rain latest hour (hover to see other rain measurements)
** Current wind speed in m/s (hover to see current wind gust speed)